Regional Weather Roundup
Issued by NWS Mobile, AL

Home | Current Version | Previous Version | Text Only | Print | Product List | Glossary On
Versions: 1 2 3 4 5 6 7 8 9 10 11 12 13 14 15 16 17 18 19 20 21 22 23 24 25 26 27 28 29 30 31 32 33 34 35 36 37 38 39 40 41 42 43 44 45 46 47 48 49 50
000
ASUS44 KMOB 230012
RWRMOB
REGIONAL WEATHER ROUNDUP
NATIONAL WEATHER SERVICE MOBILE AL
700 PM CDT WED MAY 22 2019

NOTE: "FAIR" INDICATES FEW OR NO CLOUDS BELOW 12,000 FEET WITH NO
      SIGNIFICANT WEATHER AND/OR OBSTRUCTIONS TO VISIBILITY.

  * THESE STATIONS ARE PART OF THE UNIVERSITY OF SOUTH ALABAMA
    MESONET AND ARE NOT UNDER NWS OR FAA QUALITY CONTROL.

ALZ061>064-230100-
COASTAL ALABAMA

CITY           SKY/WX    TMP DP  RH WIND       PRES   REMARKS
MOBILE REG APT FAIR      82  70  66 SE12      30.07S
6HR MIN TEMP:  82; 6HR MAX TEMP:  89;

BROOKLEY FIELD FAIR      83  72  69 S7        30.07S
6HR MIN TEMP:  83; 6HR MAX TEMP:  87;

USA CAMPUS*      N/A     82  70  65 CALM      30.08S
DOG RIVER*       N/A     81  72  74 SE3       30.07S


CITY           SKY/WX    TMP DP  RH WIND       PRES   REMARKS
GULF SHORES    FAIR      80  73  78 SE6       30.06F

$$

ALZ051>060-230100-
INTERIOR SOUTHWEST AND SOUTH CENTRAL ALABAMA

CITY           SKY/WX    TMP DP  RH WIND       PRES   REMARKS
GREENVILLE     FAIR      88  62  41 CALM      30.06S
6HR MIN TEMP:  87; 6HR MAX TEMP:  92;

EVERGREEN      FAIR      88  64  44 SW3       30.06S
6HR MIN TEMP:  88; 6HR MAX TEMP:  94;

ATMORE*          N/A     84  64  51 S7        30.06S
ANDALUSIA/OPP  FAIR      90  61  37 SW3       30.06S
6HR MIN TEMP:  90; 6HR MAX TEMP:  96;

ANDALUSIA*       N/A     88  59  37 SW3       30.07S
FLORALA APT    FAIR      85  60  42 CALM      30.08S
6HR MIN TEMP:  85; 6HR MAX TEMP:  93;

FLORALA*         N/A     61  34  36 CALM      30.07S

$$

FLZ001>006-230100-
WESTERN FLORIDA PANHANDLE

CITY           SKY/WX    TMP DP  RH WIND       PRES   REMARKS
PENSACOLA      FAIR      82  71  69 S8        30.06S
6HR MIN TEMP:  82; 6HR MAX TEMP:  86;

NAS PENSACOLA  FAIR      81  73  76 SE7       30.06S
6HR MIN TEMP:  81; 6HR MAX TEMP:  86;

MILTON         FAIR      81  67  62 S7        30.07S
6HR MIN TEMP:  81; 6HR MAX TEMP:  88;

WHTNG S FIELD  FAIR      81  68  64 S6        30.07S
6HR MIN TEMP:  81; 6HR MAX TEMP:  88;



CITY           SKY/WX    TMP DP  RH WIND       PRES   REMARKS
JAY*             N/A     86  54  32 S8        30.08S
DUKE FIELD     FAIR      85  62  45 CALM      30.06F
CRESTVIEW      FAIR      86  61  42 VRB5      30.07F
6HR MIN TEMP:  86; 6HR MAX TEMP:  93;

VALPARAISO     FAIR      84  66  54 SW3       30.06F
6HR MIN TEMP:  83; 6HR MAX TEMP:  87; 6HR PCP: TRACE;

DESTIN         FAIR      83  69  62 SW3       30.06F
6HR MIN TEMP:  83; 6HR MAX TEMP:  86;


$$

MSZ076-079-230100-
INTERIOR SOUTHEAST MISSISSIPPI

CITY           SKY/WX    TMP DP  RH WIND       PRES   REMARKS
LEAKESVILLE*     N/A     84  68  58 S6        30.06S
AGRICOLA*        N/A     82  72  69 CALM      30.07S

$$

MARINE OBSERVATIONS

STATION/POSITION TIME  TEMP    WIND        PRES    WAVE
                       AIR SEA DIR/SP/G            HT/PER
                 (UTC) (F)     (DEG/KT/KT) (MB)    (FT/S)
PETIT BOIS ISLND 2336   82     130/  9/ 12 1017.7F
GRAND BAY        2245   81     140/ 10     1019.0S
KATRINA CUT      2330  -23     140/ 10     1018.0F
CEDAR POINT      2330   82     120/  9     1017.6S
E DAUPHIN ISLAND 0000   80     140/ 10/ 11 1017.8F
USCG MOBILE BAY  2336   82 82  180/  6/  9 1018.1F
STATE DOCKS      2336   82 77              1018.0F
MEAHER PARK      2330   81     200/  9     1018.0R
WEEKS BAY        2245   85                 1018.0S
FORT MORGAN      2348   80     150/ 10/ 12 1017.9F
12 S ORANGE BCH  2340                        N/A     3/ 6
PENSACOLA BAY    2348   83 83  170/  5/  7 1018.4S
64 S DAUPHIN ISL 2350          100/ 12/ 14 1017.9S   4/ 6

$$

SELECTED LOCATIONS ACROSS THE REGION

CITY           SKY/WX    TMP DP  RH WIND       PRES   REMARKS
NEW ORLEANS    FAIR      86  72  62 SE13      30.01R
GULFPORT       FAIR      82  73  74 SE12      30.04S
PASCAGOULA AP  FAIR      83  71  67 SE8       30.05S
PASCAGOULA*      N/A     81  72  74 CALM      30.04F
HATTIESBURG    FAIR      85  69  58 S8        30.03S
LAUREL         FAIR      84  71  65 S7        30.04S
MERIDIAN       FAIR      87  69  54 SE8       30.02S
JACKSON        FAIR      87  70  56 S10       29.99S
MONTGOMERY     FAIR      88  65  46 CALM      30.07S
TROY           FAIR      85  68  56 CALM      30.08S
ASHFORD*         N/A     88  59  37 SW3       30.07S
DOTHAN         FAIR      91  57  31 CALM      30.09S
PANAMA CITY    FAIR      84  70  62 S7        30.06R

$$




USA.gov is the U.S. government's official web portal to all federal, state and local government web resources and services.